ARIANE 5 R/B (43568 NORAD) Tracking and Keplerian Element Data

This shows tracking and keplerian element data for the satellite.

Feedback or suggestion? Click here.




ElementValue
Catalog43568
NameARIANE 5 R/B
Epoch Orbit51
Epoch Day233.99730293
Epoch Year2018
RAAN59.298
Inclination56.266
Eccentricity0.000243
Argument of Perigee228.0791
Mean Anonmoly131.9579
Mean Motion1.73226115
Decay Rate-3.7E-07
L11 43568U 18060E 18233.99730293 -.00000037 00000-0 00000-0 0 9991
L22 43568 56.2660 59.2980 0002430 228.0791 131.9579 1.73226115 513

Live tracking and technical data element details for ARIANE 5 R/B (NORAD 43568). ARIANE 5 R/B can be tracked NOW for your location showing map with azimuth and elevation plus other details from your city location.

Track the satellite on the map from your city or location and see movement details for azimuth, elevation, latitude, longitude, range, height, and movement on the map or in text.







IsCatalogInMostPopularTable: catalog: 43568, numindb: 53
Update: records affected: 1



GetName: 43568 ARIANE 5 R/B

Hit Count: updated at: Tue, 20 Nov 2018 11:46:07 GMT